Regional Weather Roundup
Issued by NWS Cleveland, OH

Home | Current Version | Previous Version | Text Only | Print | Product List | Glossary On
Versions: 1 2 3 4 5 6 7 8 9 10 11 12 13 14 15 16 17 18 19 20 21 22 23 24 25 26 27 28 29 30 31 32 33 34 35 36 37 38 39 40 41 42 43 44 45 46 47 48 49 50
000
ASUS41 KCLE 301410
RWRCLE
OHIO REGIONAL WEATHER ROUNDUP
NATIONAL WEATHER SERVICE CLEVELAND, OH
1000 AM EDT SUN AUG 30 2015

NOTE: "FAIR" INDICATES FEW OR NO CLOUDS BELOW 12,000 FEET WITH NO
SIGNIFICANT WEATHER AND/OR OBSTRUCTIONS TO VISIBILITY.

OHZ001>008-015>018-024>027-034-035-043-044-301500-
   NORTHWEST OHIO

CITY           SKY/WX    TMP DP  RH WIND       PRES   REMARKS
DEFIANCE       SUNNY     73  68  84 SW7       30.08S HAZE
FINDLAY        MOSUNNY   74  69  85 SW8       30.08S
TOLEDO EXPRESS PTSUNNY   72  69  90 VRB5      30.08R FOG
TOLEDO EXEC    CLOUDY    71  67  87 SE8       30.09S
LIMA           PTSUNNY   71  67  87 S7        30.10R
$$

OHZ009>014-019>023-028>033-038-089-301500-
   NORTHEAST OHIO

CITY           SKY/WX    TMP DP  RH WIND       PRES   REMARKS
CLE-HOPKINS    LGT RAIN  69  67  93 CALM      30.13S
CLE-LAKEFRONT  CLOUDY    71  67  87 SW10      30.10R FOG
CUY CO. ARPT   CLOUDY    72  70  94 SW7       30.11S
LORAIN-ELYRIA  LGT RAIN  69  67  93 S3        30.12R FOG
ASHTABULA      PTSUNNY   69  68  96 S6        30.12S
AKRON-CANTON   PTSUNNY   70  66  87 SW7       30.13S FOG
WOOSTER        CLOUDY    69  66  90 SW5       30.13S
MANSFIELD      CLOUDY    70  67  90 SW3       30.13R
YOUNGSTOWN     CLOUDY    70  67  90 S6        30.13R FOG
$$

OHZ042-051>053-060>062-070>072-077>081-301500-
  SOUTHWEST OHIO

CITY           SKY/WX    TMP DP  RH WIND       PRES   REMARKS
CINC-COVINGTON PTSUNNY   73  68  84 S10       30.12S
CINC-LUNKEN    MOSUNNY   71  69  93 S7        30.12S
HAMILTON       MOSUNNY   76  68  76 VRB5      30.12R
DAYTON         PTSUNNY   72  70  93 S7        30.12S
WRIGHT-PAT AFB PTSUNNY   75  70  86 S8        30.11R
DAYTON GENERAL MOSUNNY   73  68  84 S8        30.12R
WILMINGTON     MOSUNNY   72  67  84 SW10      30.13R
$$

OHZ036-037-039>041-045>050-054>059-063>069-073>076-082>088-301500-
  CENTRAL AND SOUTHEAST OHIO

CITY           SKY/WX    TMP DP  RH WIND       PRES   REMARKS
COLUMBUS       CLOUDY    71  69  93 S6        30.11S
OSU AIRPORT    CLOUDY    70  67  90 S7        30.12R
BOLTON FIELD   MOSUNNY   70  70 100 S6        30.13R
RICKENBACK AFB CLOUDY    71  67  88 S7        30.11S
NEWARK         PTSUNNY   70  67  90 S5        30.12F
MARION         CLOUDY    71  66  84 S9        30.12R
LANCASTER      PTSUNNY   75  68  78 S7        30.13R
ZANESVILLE     PTSUNNY   73  65  75 S5        30.13F
NEW PHILLY     PTSUNNY   71  68  90 CALM      30.14R
$$


USA.gov is the U.S. government's official web portal to all federal, state and local government web resources and services.